Location: Pedimozza
(42.0500°N, 9.3500°E)
Time: 02:17:07
(UTC+00:00)

Lacrosse 4 Rocket - Pass Details

Date: 19 August 2019
Orbit: 544 x 615 km, 68.0° (Epoch: 23 October)

Event Time Altitude Azimuth Distance (km) Brightness Sun altitude
Rises 23:37:40 0° 341° (NNW) 2,768 5.8 -35.3°
Reaches altitude 10° 23:40:12 10° 354° (N) 1,855 4.8 -35.2°
Enters shadow 23:41:12 15° 3° (N) 1,541 4.3 -35.2°
